When you browse on this site, cookies collect data to enhance your experience and personalize the content and advertising you see.
Visit our Privacy Policy to learn more. By continuing to use the site, you agree to this use of cookies and data.
  • In Sweden
  • List of Countries
  • For 7 days
  • Water Temperature
  • Satellite Maps
  • Weather Map
  • Weather Widgets
  • user-avatar
    Login

    Hourly Weather Çatalca

    Today, 21 January, Monday

    Time Temperature Precipitation Wind Pressure Humidity
    00:00 +8°C° 0 mm 4 mps 754 mmHg 84%
    01:00 +8°C° 0 mm 4 mps 754 mmHg 84%
    02:00 +8°C° 0 mm 3 mps 754 mmHg 86%
    03:00 +8°C° 0 mm 3 mps 754 mmHg 87%
    04:00 +8°C° 0 mm 3 mps 754 mmHg 87%
    05:00 +8°C° 0 mm 3 mps 754 mmHg 88%
    06:00 +8°C° 0 mm 2 mps 754 mmHg 89%
    07:00 +7°C° 0 mm 2 mps 754 mmHg 90%
    08:00 +9°C° 0 mm 1 mps 754 mmHg 92%
    09:00 +8°C° 0 mm 3 mps 754 mmHg 91%
    10:00 +7°C° 0 mm 4 mps 755 mmHg 90%
    11:00 +7°C° 0 mm 5 mps 755 mmHg 89%
    12:00 +7°C° 0 mm 6 mps 755 mmHg 85%
    13:00 +7°C° 0 mm 6 mps 755 mmHg 80%
    14:00 +6°C° 0 mm 7 mps 755 mmHg 76%
    15:00 +5°C° 0 mm 7 mps 755 mmHg 77%
    16:00 +5°C° 0 mm 6 mps 755 mmHg 78%
    17:00 +4°C° 0 mm 6 mps 756 mmHg 80%
    18:00 +4°C° 0 mm 6 mps 756 mmHg 81%
    19:00 +3°C° 0 mm 6 mps 756 mmHg 82%
    20:00 +3°C° 0 mm 6 mps 756 mmHg 84%
    21:00 +3°C° 0 mm 6 mps 757 mmHg 85%
    22:00 +3°C° 0 mm 6 mps 757 mmHg 85%
    23:00 +3°C° 0 mm 6 mps 757 mmHg 86%

    Tomorrow, 22 January, Tuesday

    Time Temperature Precipitation Wind Pressure Humidity
    00:00 +3°C° 0 mm 6 mps 757 mmHg 86%
    01:00 +3°C° 0 mm 6 mps 757 mmHg 86%
    02:00 +3°C° 0 mm 5 mps 757 mmHg 85%
    03:00 +3°C° 0 mm 5 mps 757 mmHg 85%
    04:00 +3°C° 0 mm 5 mps 757 mmHg 86%
    05:00 +3°C° 0 mm 5 mps 757 mmHg 86%
    06:00 +3°C° 0 mm 5 mps 757 mmHg 87%
    07:00 +3°C° 0 mm 5 mps 757 mmHg 87%
    08:00 +3°C° 0 mm 5 mps 756 mmHg 88%
    09:00 +5°C° 0 mm 4 mps 756 mmHg 86%
    10:00 +6°C° 0 mm 4 mps 756 mmHg 85%
    11:00 +6°C° 0 mm 4 mps 756 mmHg 83%
    12:00 +7°C° 0 mm 4 mps 756 mmHg 81%
    13:00 +8°C° 0 mm 3 mps 755 mmHg 80%
    14:00 +8°C° 0 mm 3 mps 754 mmHg 78%
    15:00 +8°C° 0 mm 3 mps 754 mmHg 80%
    16:00 +8°C° 0 mm 2 mps 754 mmHg 82%
    17:00 +7°C° 0 mm 2 mps 753 mmHg 85%
    18:00 +7°C° 0 mm 2 mps 753 mmHg 87%
    19:00 +7°C° 0 mm 2 mps 753 mmHg 89%
    20:00 +6°C° 0 mm 2 mps 753 mmHg 91%
    21:00 +6°C° 0 mm 2 mps 752 mmHg 90%
    22:00 +6°C° 0 mm 2 mps 752 mmHg 89%
    23:00 +6°C° 0 mm 2 mps 752 mmHg 88%

    Day after tomorrow, 23 January, Wednesday

    Time Temperature Precipitation Wind Pressure Humidity
    00:00 +7°C° 0 mm 3 mps 751 mmHg 88%
    01:00 +7°C° 0 mm 3 mps 751 mmHg 88%
    02:00 +6°C° 0 mm 4 mps 751 mmHg 87%
    03:00 +7°C° 0 mm 5 mps 750 mmHg 84%
    04:00 +7°C° 0 mm 5 mps 749 mmHg 81%
    05:00 +8°C° 0 mm 6 mps 749 mmHg 78%
    06:00 +8°C° 0 mm 6 mps 749 mmHg 78%
    07:00 +8°C° 0 mm 6 mps 749 mmHg 77%
    08:00 +8°C° 0 mm 6 mps 748 mmHg 77%
    09:00 +9°C° 0 mm 7 mps 748 mmHg 73%
    10:00 +10°C° 0 mm 8 mps 748 mmHg 68%
    11:00 +12°C° 0 mm 9 mps 748 mmHg 64%
    12:00 +12°C° 0 mm 9 mps 748 mmHg 64%
    13:00 +12°C° 0 mm 9 mps 748 mmHg 65%
    14:00 +12°C° 0 mm 9 mps 747 mmHg 65%
    15:00 +12°C° 0.1 mm 8 mps 747 mmHg 68%
    16:00 +11°C° 0.1 mm 8 mps 747 mmHg 72%
    17:00 +11°C° 0.1 mm 7 mps 747 mmHg 75%
    18:00 +11°C° 0.3 mm 6 mps 748 mmHg 78%
    19:00 +10°C° 0.3 mm 6 mps 748 mmHg 80%
    20:00 +10°C° 0.3 mm 5 mps 748 mmHg 83%
    21:00 +10°C° 0.5 mm 5 mps 748 mmHg 84%
    22:00 +9°C° 0.5 mm 5 mps 748 mmHg 85%
    23:00 +9°C° 0.5 mm 5 mps 748 mmHg 86%

    24 January, Thursday

    Time Temperature Precipitation Wind Pressure Humidity
    00:00 +10°C° 0.1 mm 4 mps 747 mmHg 86%
    01:00 +8°C° 0.1 mm 4 mps 747 mmHg 86%
    02:00 +9°C° 0.1 mm 3 mps 746 mmHg 87%
    03:00 +9°C° 0 mm 3 mps 746 mmHg 85%
    04:00 +9°C° 0 mm 3 mps 745 mmHg 83%
    05:00 +8°C° 0 mm 3 mps 745 mmHg 82%
    06:00 +8°C° 0 mm 3 mps 744 mmHg 82%
    07:00 +8°C° 0 mm 3 mps 744 mmHg 81%
    08:00 +8°C° 0 mm 3 mps 744 mmHg 81%
    09:00 +9°C° 0 mm 3 mps 744 mmHg 76%
    10:00 +10°C° 0 mm 3 mps 744 mmHg 71%
    11:00 +11°C° 0 mm 3 mps 743 mmHg 65%
    12:00 +12°C° 0 mm 3 mps 743 mmHg 62%
    13:00 +13°C° 0 mm 3 mps 742 mmHg 60%
    14:00 +14°C° 0 mm 3 mps 742 mmHg 57%
    15:00 +13°C° 0 mm 3 mps 742 mmHg 59%
    16:00 +12°C° 0 mm 3 mps 741 mmHg 62%
    17:00 +12°C° 0 mm 3 mps 741 mmHg 65%
    18:00 +11°C° 0 mm 4 mps 742 mmHg 63%
    19:00 +11°C° 0 mm 4 mps 742 mmHg 61%
    20:00 +10°C° 0 mm 5 mps 742 mmHg 59%
    21:00 +10°C° 0.1 mm 5 mps 742 mmHg 61%
    22:00 +10°C° 0.1 mm 5 mps 743 mmHg 63%
    23:00 +10°C° 0.1 mm 5 mps 743 mmHg 65%

    25 January, Friday

    Time Temperature Precipitation Wind Pressure Humidity
    00:00 +10°C° 0.3 mm 5 mps 743 mmHg 70%
    01:00 +9°C° 0.3 mm 5 mps 744 mmHg 75%
    02:00 +9°C° 0.3 mm 6 mps 744 mmHg 80%
    03:00 +9°C° 0.1 mm 6 mps 744 mmHg 80%
    04:00 +9°C° 0.1 mm 7 mps 745 mmHg 81%
    05:00 +9°C° 0.1 mm 8 mps 745 mmHg 82%
    06:00 +9°C° 0 mm 7 mps 745 mmHg 82%
    07:00 +9°C° 0 mm 6 mps 746 mmHg 83%
    08:00 +9°C° 0 mm 5 mps 746 mmHg 83%
    09:00 +10°C° 0 mm 5 mps 746 mmHg 76%
    10:00 +12°C° 0 mm 5 mps 746 mmHg 69%
    11:00 +13°C° 0 mm 5 mps 746 mmHg 62%
    12:00 +12°C° 0.1 mm 4 mps 746 mmHg 64%
    13:00 +12°C° 0.1 mm 4 mps 746 mmHg 66%
    14:00 +12°C° 0.1 mm 3 mps 746 mmHg 68%
    15:00 +11°C° 0.5 mm 3 mps 746 mmHg 73%
    16:00 +11°C° 0.5 mm 3 mps 746 mmHg 77%
    17:00 +10°C° 0.5 mm 3 mps 746 mmHg 81%
    18:00 +10°C° 0.3 mm 4 mps 745 mmHg 83%
    19:00 +10°C° 0.3 mm 4 mps 745 mmHg 85%
    20:00 +8°C° 0.3 mm 4 mps 745 mmHg 87%
    21:00 +8°C° 0.3 mm 5 mps 745 mmHg 87%
    22:00 +8°C° 0.3 mm 6 mps 744 mmHg 87%
    23:00 +8°C° 0.3 mm 7 mps 744 mmHg 87%

    26 January, Saturday

    Time Temperature Precipitation Wind Pressure Humidity
    00:00 +8°C° 0.1 mm 6 mps 744 mmHg 85%
    01:00 +8°C° 0.1 mm 6 mps 743 mmHg 82%
    02:00 +8°C° 0.1 mm 5 mps 743 mmHg 80%
    03:00 +8°C° 0 mm 4 mps 743 mmHg 80%
    04:00 +8°C° 0 mm 4 mps 743 mmHg 81%
    05:00 +8°C° 0 mm 3 mps 743 mmHg 81%
    06:00 +8°C° 0 mm 2 mps 743 mmHg 81%
    07:00 +8°C° 0 mm 2 mps 743 mmHg 80%
    08:00 +8°C° 0 mm 2 mps 743 mmHg 80%
    09:00 +9°C° 0 mm 2 mps 743 mmHg 74%
    10:00 +12°C° 0 mm 2 mps 743 mmHg 68%
    11:00 +12°C° 0 mm 3 mps 743 mmHg 62%
    12:00 +12°C° 0.4 mm 3 mps 743 mmHg 66%
    13:00 +11°C° 0.4 mm 4 mps 743 mmHg 70%
    14:00 +11°C° 0.4 mm 4 mps 743 mmHg 74%
    15:00 +9°C° 1.3 mm 5 mps 743 mmHg 78%
    16:00 +9°C° 1.3 mm 5 mps 743 mmHg 82%
    17:00 +8°C° 1.3 mm 6 mps 744 mmHg 86%
    18:00 +8°C° 1 mm 6 mps 744 mmHg 88%
    19:00 +8°C° 1 mm 5 mps 745 mmHg 90%
    20:00 +8°C° 1 mm 5 mps 745 mmHg 92%
    21:00 +7°C° 1.6 mm 6 mps 746 mmHg 92%
    22:00 +6°C° 1.6 mm 7 mps 746 mmHg 93%
    23:00 +6°C° 1.6 mm 7 mps 747 mmHg 93%
    Show more